DW7955 Weather Reports


time (UTC)temp
C
wind
direction
speed
KPH
gust
KPH
rain 1hr
cm
rain 24hr
cm
rain mn
cm
humidity
%
barometer
mb
20260503221502 25 248 4.8 14.5 0.00 0.00 0.00 11 1003.7
20260503220002 25 215 14.5 29.0 0.00 0.00 0.00 12 1003.8
20260503214557 25 263 8.0 17.7 0.00 0.00 0.00 11 1004.1
20260503213055 24 268 3.2 12.9 0.00 0.00 0.00 12 1004.6
20260503211552 23 214 4.8 22.5 0.00 0.00 0.00 13 1005.2
20260503210049 24 327 8.0 22.5 0.00 0.00 0.00 12 1005.7
20260503204547 23 197 11.3 22.5 0.00 0.00 0.00 13 1006.0
20260503203054 23 281 9.7 24.1 0.00 0.00 0.00 13 1006.4
20260503201549 23 260 4.8 20.9 0.00 0.00 0.00 13 1006.6
20260503200041 23 257 11.3 22.5 0.00 0.00 0.00 13 1006.8
20260503194541 22 319 12.9 22.5 0.00 0.00 0.00 14 1006.9
20260503193038 23 329 14.5 25.7 0.00 0.00 0.00 13 1007.2
20260503191536 23 285 8.0 27.4 0.00 0.00 0.00 15 1007.5
20260503190031 22 305 11.3 27.4 0.00 0.00 0.00 14 1008.0
20260503184528 22 305 9.7 22.5 0.00 0.00 0.00 16 1008.4
20260503183025 22 322 11.3 29.0 0.00 0.00 0.00 15 1008.8
20260503181523 22 271 8.0 24.1 0.00 0.00 0.00 16 1009.1
20260503180020 21 307 19.3 33.8 0.00 0.00 0.00 17 1009.3
20260503174519 21 274 14.5 37.0 0.00 0.00 0.00 18 1009.5
20260503173017 21 329 16.1 29.0 0.00 0.00 0.00 17 1009.8
20260503171515 21 287 17.7 35.4 0.00 0.00 0.00 17 1010.1
20260503081558 7 269 1.6 4.8 0.00 0.00 0.00 56 1013.1
20260503071609 7 269 0.0 0.0 0.00 0.00 0.00 59 1013.4
20260503054549 10 30 4.8 8.0 0.00 0.00 0.00 42 1013.3
20260503053036 11 47 0.0 6.4 0.00 0.00 0.00 38 1013.4
20260503051536 12 66 1.6 9.7 0.00 0.00 0.00 33 1013.3
20260503050039 12 137 0.0 3.2 0.00 0.00 0.00 33 1013.4
20260503044534 12 137 0.0 0.0 0.00 0.00 0.00 33 1013.5
20260503043033 13 137 0.0 6.4 0.00 0.00 0.00 31 1013.6
20260503041538 13 142 3.2 8.0 0.00 0.00 0.00 30 1013.7
20260503040032 13 134 3.2 8.0 0.00 0.00 0.00 30 1013.8
20260503034532 15 153 4.8 11.3 0.00 0.00 0.00 27 1013.8
20260503033037 15 120 9.7 16.1 0.00 0.00 0.00 24 1013.8
20260503031531 15 130 6.4 16.1 0.00 0.00 0.00 24 1013.7
20260503030041 16 110 4.8 12.9 0.00 0.00 0.00 23 1013.8
20260503024531 16 107 4.8 12.9 0.00 0.00 0.00 21 1013.5
20260503023031 16 119 1.6 8.0 0.00 0.00 0.00 20 1013.4
20260503021529 17 97 4.8 11.3 0.00 0.00 0.00 19 1013.3
20260503020029 17 79 4.8 9.7 0.00 0.00 0.00 19 1013.2
20260503014528 18 84 1.6 11.3 0.00 0.00 0.00 19 1013.2
20260503013032 18 64 4.8 12.9 0.00 0.00 0.00 18 1013.1
20260503011528 18 57 3.2 16.1 0.00 0.00 0.00 18 1013.0
20260503010031 19 76 8.0 20.9 0.00 0.00 0.00 16 1013.0
20260503004526 20 97 9.7 22.5 0.00 0.00 0.00 16 1013.2
20260503003025 20 121 11.3 20.9 0.00 0.00 0.00 16 1013.2
20260503001523 20 117 8.0 24.1 0.00 0.00 0.00 16 1013.3
20260503000021 20 64 11.3 17.7 0.00 0.00 0.00 16 1013.6
20260502234527 20 99 4.8 17.7 0.00 0.00 0.00 16 1013.7
20260502233019 20 117 8.0 12.9 0.00 0.00 0.00 16 1013.8
20260502231518 20 275 0.0 17.7 0.00 0.00 0.00 17 1013.9
20260502230022 20 138 3.2 12.9 0.00 0.00 0.00 17 1014.1
20260502224515 20 1 6.4 11.3 0.00 0.00 0.00 18 1014.2
20260502223014 20 77 4.8 14.5 0.00 0.00 0.00 18 1014.4